{"data":{"norad_id":66219,"intl_designator":"2025-244P","name":"STARLINK-35737","alt_names":[],"object_type":"PAYLOAD","status":"ACTIVE","operator":null,"country":"US","launch_date":"2025-10-28","launch_site_code":"AFWTR","launch_vehicle":null,"mission":null,"orbit_class":"UNKNOWN","rcs_meters":null,"size_class":null,"mass_kg":null,"dimensions":null,"purposes":["comms"],"wikipedia_slug":null,"has_3d_model":false,"image_url":null,"decayed_at":null,"tle_current":{"epoch":"2026-05-24T15:57:24.788736Z","epoch_age_seconds":108041,"freshness":"FRESH","line1":"1 66219U 25244P   26144.66487024  .00026354  00000+0  89882-3 0  9992","line2":"2 66219  53.1588 236.8729 0001293  80.3049 279.8098 15.30197910 33298","mean_motion":15.3019791,"eccentricity":0.0001293,"inclination_deg":53.1588,"raan_deg":236.8729,"arg_perigee_deg":80.3049,"mean_anomaly_deg":279.8098,"bstar":0.00089882,"rev_number":3329,"period_min":94.10547423895,"perigee_km":474.33517056025,"apogee_km":476.10744901916,"semimajor_km":6853.3583097897,"source":"CELESTRAK","updated_at":"2026-05-25T13:38:21.129412Z"}}}